QPF
0.04 0.05 0.05 0.04 0.04 0.04 0.05 0.06 0.08 0.07 0.07 0.08 0.07 0.07 0.07 0.06 0.07 0.07 0.07 0.08 0.07 0.06 0.05 0.04 0.06 0.09 0.09 0.07 0.06 0.04 0.03 0.03 0.02 0.02 0.02 0.02 0.03 0.03
0.06 0.06 0.05 0.04 0.03 0.03 0.04 0.05 0.06 0.06 0.06 0.05 0.07 0.07 0.06 0.04 0.04 0.05 0.05 0.05 0.04 0.03 0.03 0.02 0.04 0.05 0.05 0.05 0.05 0.05 0.04 0.03 0.03 0.02 0.02 0.02 0.02 0.02
0.07 0.07 0.06 0.05 0.04 0.04 0.04 0.05 0.04 0.05 0.06 0.05 0.06 0.06 0.06 0.05 0.04 0.05 0.03 0.03 0.02 0.01 0.01 0.01 0.01 0.02 0.04 0.04 0.04 0.04 0.04 0.03 0.03 0.03 0.02 0.02 0.02 0.02
0.07 0.08 0.08 0.07 0.06 0.04 0.04 0.04 0.03 0.05 0.07 0.06 0.06 0.06 0.06 0.05 0.04 0.04 0.03 0.03 0.02 0.02 0.01 0.01 0.01 0.01 0.02 0.04 0.05 0.05 0.04 0.04 0.04 0.03 0.03 0.02 0.02 0.02
0.06 0.07 0.07 0.07 0.06 0.04 0.04 0.04 0.03 0.04 0.06 0.05 0.06 0.06 0.05 0.05 0.04 0.05 0.04 0.04 0.02 0.02 0.02 0.01 0.01 0.01 0.01 0.02 0.03 0.04 0.04 0.04 0.03 0.03 0.03 0.03 0.03 0.03
0.04 0.04 0.04 0.04 0.04 0.04 0.04 0.04 0.04 0.05 0.07 0.07 0.06 0.06 0.05 0.05 0.06 0.05 0.04 0.04 0.03 0.02 0.01 0.01 0.01 0.01 0.01 0.01 0.01 0.02 0.03 0.03 0.04 0.04 0.04 0.03 0.03 0.03
0.06 0.06 0.04 0.03 0.03 0.03 0.03 0.04 0.05 0.05 0.05 0.06 0.06 0.07 0.05 0.06 0.06 0.04 0.04 0.04 0.03 0.03 0.03 0.02 0.01 0.01 0.01 0.01 0.01 0.01 0.01 0.02 0.02 0.03 0.03 0.04 0.04 0.04
0.06 0.06 0.05 0.04 0.04 0.03 0.02 0.01 0.03 0.04 0.05 0.06 0.08 0.07 0.05 0.07 0.07 0.06 0.05 0.05 0.04 0.03 0.05 0.04 0.04 0.03 0.01 0.01 0.01 0.01 0.01 0.01 0.01 0.01 0.02 0.02 0.03 0.04
0.05 0.05 0.04 0.03 0.03 0.03 0.03 0.01 0.01 0.02 0.03 0.05 0.06 0.06 0.06 0.07 0.07 0.06 0.06 0.05 0.04 0.05 0.06 0.05 0.04 0.03 0.02 0.01 0.01 0.01 0.01 0.00 0.00 0.01 0.01 0.01 0.01 0.01
0.04 0.04 0.05 0.05 0.03 0.02 0.03 0.03 0.02 0.01 0.02 0.02 0.03 0.05 0.06 0.07 0.07 0.06 0.06 0.05 0.05 0.05 0.07 0.07 0.04 0.03 0.02 0.02 0.02 0.01 0.01 0.01 0.01 0.01 0.01 0.01 0.01 0.02
0.04 0.04 0.04 0.04 0.03 0.02 0.02 0.03 0.03 0.02 0.01 0.01 0.02 0.02 0.03 0.05 0.06 0.05 0.05 0.05 0.05 0.04 0.05 0.07 0.06 0.05 0.03 0.03 0.02 0.02 0.02 0.02 0.02 0.02 0.02 0.02 0.02 0.03
0.05 0.05 0.04 0.04 0.04 0.03 0.03 0.04 0.03 0.03 0.02 0.02 0.02 0.02 0.02 0.02 0.05 0.06 0.06 0.06 0.05 0.05 0.04 0.05 0.06 0.07 0.05 0.04 0.03 0.03 0.03 0.03 0.03 0.03 0.03 0.03 0.03 0.03
0.03 0.05 0.06 0.06 0.05 0.03 0.02 0.03 0.03 0.03 0.04 0.04 0.03 0.03 0.03 0.03 0.03 0.04 0.05 0.07 0.07 0.05 0.04 0.03 0.04 0.05 0.06 0.06 0.07 0.06 0.05 0.04 0.03 0.03 0.03 0.04 0.04 0.03
0.03 0.03 0.03 0.04 0.05 0.04 0.03 0.02 0.02 0.03 0.03 0.04 0.04 0.04 0.02 0.02 0.02 0.02 0.03 0.04 0.07 0.07 0.05 0.04 0.04 0.04 0.04 0.04 0.04 0.04 0.04 0.04 0.04 0.04 0.04 0.04 0.04 0.04
0.03 0.03 0.02 0.02 0.03 0.04 0.03 0.02 0.02 0.03 0.03 0.03 0.03 0.02 0.02 0.02 0.03 0.03 0.03 0.04 0.05 0.06 0.06 0.06 0.07 0.06 0.05 0.06 0.05 0.04 0.04 0.03 0.04 0.04 0.05 0.05 0.03 0.03
0.04 0.03 0.02 0.02 0.03 0.03 0.03 0.03 0.03 0.03 0.03 0.02 0.02 0.03 0.03 0.03 0.04 0.04 0.04 0.05 0.05 0.05 0.06 0.07 0.07 0.08 0.07 0.06 0.05 0.04 0.03 0.04 0.03 0.03 0.04 0.05 0.05 0.04
0.05 0.05 0.04 0.04 0.04 0.04 0.04 0.04 0.03 0.02 0.02 0.03 0.03 0.03 0.03 0.03 0.04 0.04 0.06 0.06 0.05 0.04 0.04 0.04 0.05 0.05 0.06 0.07 0.07 0.06 0.04 0.04 0.04 0.04 0.04 0.04 0.03 0.03
0.04 0.03 0.04 0.04 0.04 0.03 0.03 0.02 0.02 0.02 0.02 0.02 0.02 0.02 0.02 0.03 0.03 0.04 0.04 0.04 0.04 0.03 0.03 0.04 0.04 0.04 0.04 0.05 0.06 0.06 0.05 0.05 0.05 0.06 0.05 0.05 0.03 0.02
0.02 0.02 0.03 0.02 0.02 0.02 0.02 0.01 0.01 0.01 0.01 0.02 0.02 0.02 0.03 0.03 0.03 0.03 0.03 0.03 0.03 0.03 0.03 0.03 0.04 0.05 0.05 0.05 0.04 0.04 0.05 0.05 0.06 0.06 0.06 0.05 0.04 0.03
0.02 0.02 0.02 0.02 0.01 0.01 0.02 0.01 0.01 0.02 0.02 0.02 0.02 0.03 0.03 0.03 0.04 0.04 0.03 0.03 0.03 0.03 0.04 0.04 0.04 0.03 0.03 0.04 0.05 0.04 0.04 0.05 0.05 0.05 0.05 0.05 0.04 0.03
0.03 0.02 0.02 0.02 0.02 0.02 0.02 0.02 0.02 0.02 0.02 0.02 0.02 0.03 0.03 0.03 0.03 0.03 0.02 0.02 0.03 0.03 0.03 0.03 0.03 0.03 0.03 0.03 0.04 0.04 0.03 0.04 0.04 0.05 0.05 0.05 0.05 0.05
0.03 0.03 0.02 0.02 0.02 0.02 0.03 0.03 0.03 0.03 0.03 0.03 0.03 0.03 0.03 0.02 0.02 0.02 0.02 0.02 0.02 0.02 0.02 0.02 0.03 0.05 0.04 0.04 0.04 0.03 0.03 0.03 0.04 0.05 0.05 0.05 0.05 0.05
0.03 0.03 0.03 0.03 0.03 0.03 0.03 0.03 0.04 0.04 0.04 0.04 0.03 0.03 0.03 0.03 0.02 0.02 0.02 0.02 0.02 0.02 0.03 0.03 0.04 0.05 0.04 0.04 0.04 0.04 0.04 0.04 0.06 0.05 0.04 0.04 0.04 0.03
MSLP
1015.97 1016.13 1016.31 1016.48 1016.65 1016.79 1016.91 1017.02 1017.13 1017.26 1017.43 1017.65 1017.93 1018.26 1018.63 1019.02 1019.39 1019.74 1020.04 1020.29 1020.48 1020.62 1020.72 1020.81 1020.90 1021.00 1021.14 1021.31 1021.53 1021.79 1022.09 1022.43 1022.79 1023.17 1023.55 1023.92 1024.27 1024.59
1015.67 1015.84 1016.03 1016.21 1016.38 1016.53 1016.67 1016.79 1016.91 1017.05 1017.21 1017.42 1017.68 1018.00 1018.35 1018.74 1019.14 1019.53 1019.90 1020.23 1020.52 1020.76 1020.97 1021.15 1021.32 1021.47 1021.63 1021.81 1022.02 1022.25 1022.52 1022.82 1023.15 1023.49 1023.84 1024.19 1024.52 1024.82
1015.33 1015.53 1015.73 1015.92 1016.11 1016.29 1016.45 1016.60 1016.74 1016.89 1017.06 1017.26 1017.49 1017.77 1018.10 1018.46 1018.84 1019.25 1019.65 1020.05 1020.42 1020.77 1021.08 1021.37 1021.62 1021.85 1022.06 1022.27 1022.48 1022.70 1022.95 1023.21 1023.50 1023.81 1024.12 1024.43 1024.73 1025.02
1014.93 1015.16 1015.38 1015.59 1015.81 1016.02 1016.22 1016.41 1016.59 1016.77 1016.95 1017.14 1017.36 1017.60 1017.88 1018.20 1018.56 1018.94 1019.36 1019.79 1020.22 1020.64 1021.04 1021.41 1021.75 1022.05 1022.32 1022.56 1022.79 1023.02 1023.25 1023.49 1023.75 1024.02 1024.30 1024.59 1024.86 1025.13
1014.47 1014.71 1014.94 1015.18 1015.42 1015.67 1015.92 1016.16 1016.40 1016.62 1016.84 1017.04 1017.25 1017.47 1017.71 1017.98 1018.29 1018.64 1019.03 1019.46 1019.91 1020.37 1020.82 1021.25 1021.65 1022.01 1022.33 1022.60 1022.85 1023.09 1023.31 1023.55 1023.79 1024.05 1024.32 1024.59 1024.85 1025.11
1013.91 1014.15 1014.39 1014.64 1014.91 1015.20 1015.50 1015.80 1016.11 1016.39 1016.66 1016.90 1017.12 1017.33 1017.55 1017.78 1018.04 1018.34 1018.69 1019.08 1019.51 1019.97 1020.43 1020.88 1021.30 1021.68 1022.02 1022.32 1022.59 1022.83 1023.07 1023.32 1023.57 1023.84 1024.11 1024.39 1024.67 1024.93
1013.26 1013.50 1013.74 1013.99 1014.28 1014.60 1014.95 1015.31 1015.68 1016.03 1016.36 1016.65 1016.91 1017.13 1017.34 1017.54 1017.76 1018.02 1018.31 1018.65 1019.03 1019.44 1019.87 1020.29 1020.69 1021.07 1021.41 1021.71 1021.99 1022.25 1022.51 1022.78 1023.07 1023.37 1023.68 1023.99 1024.29 1024.58
1012.54 1012.76 1013.00 1013.25 1013.55 1013.89 1014.27 1014.68 1015.11 1015.52 1015.91 1016.26 1016.56 1016.82 1017.04 1017.23 1017.43 1017.64 1017.88 1018.15 1018.47 1018.81 1019.18 1019.54 1019.89 1020.23 1020.54 1020.83 1021.11 1021.39 1021.68 1021.99 1022.32 1022.67 1023.04 1023.40 1023.75 1024.08
1011.77 1012.00 1012.23 1012.49 1012.79 1013.14 1013.53 1013.97 1014.43 1014.89 1015.33 1015.73 1016.07 1016.37 1016.61 1016.82 1017.01 1017.19 1017.39 1017.61 1017.86 1018.13 1018.42 1018.71 1018.99 1019.27 1019.54 1019.81 1020.08 1020.37 1020.69 1021.04 1021.43 1021.84 1022.26 1022.69 1023.09 1023.46
1011.03 1011.28 1011.52 1011.77 1012.07 1012.41 1012.80 1013.24 1013.70 1014.17 1014.64 1015.07 1015.45 1015.78 1016.06 1016.29 1016.49 1016.67 1016.85 1017.04 1017.24 1017.44 1017.66 1017.88 1018.10 1018.32 1018.54 1018.78 1019.04 1019.34 1019.68 1020.06 1020.49 1020.95 1021.43 1021.90 1022.35 1022.75
1010.35 1010.64 1010.91 1011.17 1011.45 1011.77 1012.14 1012.55 1012.99 1013.44 1013.90 1014.34 1014.74 1015.09 1015.40 1015.66 1015.89 1016.09 1016.27 1016.45 1016.63 1016.80 1016.97 1017.14 1017.31 1017.48 1017.66 1017.87 1018.12 1018.41 1018.76 1019.16 1019.61 1020.10 1020.61 1021.11 1021.57 1021.99
1009.79 1010.13 1010.43 1010.70 1010.98 1011.27 1011.59 1011.95 1012.34 1012.75 1013.17 1013.58 1013.98 1014.34 1014.67 1014.96 1015.22 1015.45 1015.66 1015.86 1016.04 1016.21 1016.37 1016.52 1016.66 1016.81 1016.97 1017.15 1017.38 1017.66 1018.00 1018.40 1018.84 1019.33 1019.83 1020.32 1020.78 1021.18
1009.34 1009.73 1010.06 1010.35 1010.61 1010.87 1011.15 1011.44 1011.76 1012.11 1012.47 1012.84 1013.21 1013.56 1013.90 1014.21 1014.50 1014.77 1015.03 1015.26 1015.47 1015.67 1015.84 1016.00 1016.15 1016.29 1016.45 1016.62 1016.83 1017.09 1017.40 1017.77 1018.19 1018.63 1019.10 1019.55 1019.97 1020.33
1008.98 1009.42 1009.77 1010.06 1010.32 1010.54 1010.77 1011.00 1011.25 1011.53 1011.82 1012.14 1012.46 1012.79 1013.12 1013.44 1013.75 1014.06 1014.35 1014.63 1014.89 1015.12 1015.34 1015.53 1015.71 1015.87 1016.03 1016.21 1016.41 1016.64 1016.91 1017.23 1017.59 1017.97 1018.37 1018.75 1019.11 1019.42
1008.67 1009.11 1009.47 1009.77 1010.00 1010.20 1010.39 1010.57 1010.76 1010.97 1011.21 1011.46 1011.74 1012.03 1012.34 1012.65 1012.98 1013.30 1013.63 1013.94 1014.25 1014.53 1014.79 1015.03 1015.25 1015.44 1015.62 1015.80 1015.99 1016.20 1016.44 1016.70 1016.98 1017.29 1017.60 1017.91 1018.19 1018.44
1008.35 1008.76 1009.10 1009.38 1009.60 1009.79 1009.94 1010.09 1010.25 1010.41 1010.60 1010.80 1011.03 1011.29 1011.57 1011.86 1012.18 1012.51 1012.84 1013.18 1013.52 1013.84 1014.14 1014.42 1014.67 1014.90 1015.11 1015.30 1015.49 1015.67 1015.87 1016.08 1016.30 1016.53 1016.77 1016.99 1017.21 1017.41
1007.98 1008.33 1008.62 1008.87 1009.08 1009.25 1009.40 1009.53 1009.67 1009.81 1009.97 1010.15 1010.35 1010.57 1010.82 1011.08 1011.37 1011.69 1012.01 1012.35 1012.69 1013.03 1013.35 1013.65 1013.93 1014.19 1014.42 1014.62 1014.81 1014.99 1015.16 1015.33 1015.50 1015.68 1015.85 1016.02 1016.20 1016.36
1007.55 1007.80 1008.03 1008.24 1008.42 1008.59 1008.74 1008.88 1009.03 1009.18 1009.33 1009.50 1009.68 1009.87 1010.09 1010.32 1010.58 1010.86 1011.15 1011.46 1011.79 1012.11 1012.43 1012.74 1013.03 1013.29 1013.54 1013.76 1013.96 1014.13 1014.30 1014.45 1014.60 1014.75 1014.89 1015.04 1015.19 1015.35
1007.07 1007.23 1007.38 1007.54 1007.70 1007.86 1008.02 1008.19 1008.35 1008.51 1008.68 1008.85 1009.03 1009.21 1009.40 1009.60 1009.82 1010.06 1010.31 1010.57 1010.85 1011.15 1011.44 1011.73 1012.01 1012.28 1012.53 1012.76 1012.97 1013.16 1013.33 1013.50 1013.65 1013.80 1013.94 1014.10 1014.26 1014.44
1006.62 1006.67 1006.76 1006.87 1007.00 1007.15 1007.32 1007.50 1007.68 1007.87 1008.05 1008.24 1008.42 1008.59 1008.77 1008.94 1009.12 1009.31 1009.52 1009.73 1009.96 1010.21 1010.46 1010.72 1010.98 1011.23 1011.48 1011.71 1011.94 1012.15 1012.34 1012.53 1012.71 1012.89 1013.07 1013.26 1013.45 1013.67
1006.23 1006.21 1006.23 1006.29 1006.39 1006.53 1006.70 1006.88 1007.08 1007.28 1007.48 1007.68 1007.86 1008.03 1008.19 1008.35 1008.50 1008.66 1008.82 1008.99 1009.17 1009.36 1009.57 1009.79 1010.01 1010.24 1010.48 1010.71 1010.94 1011.18 1011.40 1011.63 1011.85 1012.08 1012.30 1012.54 1012.78 1013.04
1005.96 1005.88 1005.86 1005.89 1005.96 1006.08 1006.23 1006.40 1006.60 1006.80 1007.00 1007.19 1007.37 1007.54 1007.70 1007.84 1007.97 1008.10 1008.23 1008.36 1008.50 1008.65 1008.81 1008.98 1009.17 1009.37 1009.59 1009.82 1010.06 1010.30 1010.56 1010.83 1011.10 1011.37 1011.65 1011.93 1012.22 1012.51
1005.81 1005.72 1005.68 1005.68 1005.73 1005.82 1005.94 1006.10 1006.26 1006.44 1006.62 1006.80 1006.97 1007.13 1007.27 1007.41 1007.53 1007.64 1007.75 1007.86 1007.96 1008.08 1008.20 1008.33 1008.48 1008.65 1008.84 1009.06 1009.29 1009.55 1009.83 1010.12 1010.43 1010.75 1011.07 1011.39 1011.72 1012.04
Thickness
5698 5698 5696 5695 5695 5694 5693 5690 5684 5680 5682 5687 5689 5693 5693 5692 5690 5688 5686 5685 5683 5681 5680 5679 5678 5676 5676 5675 5674 5673 5672 5672 5672 5671 5671 5670 5669 5669
5696 5694 5693 5692 5692 5691 5690 5688 5686 5681 5679 5684 5685 5687 5688 5688 5686 5685 5683 5682 5680 5678 5677 5675 5674 5673 5672 5671 5670 5669 5668 5667 5667 5667 5666 5666 5665 5664
5692 5691 5690 5689 5688 5686 5686 5684 5683 5681 5676 5680 5682 5683 5683 5682 5680 5680 5679 5678 5676 5675 5673 5672 5671 5669 5668 5667 5665 5665 5664 5663 5663 5662 5662 5661 5661 5660
5687 5686 5685 5685 5684 5682 5681 5679 5679 5679 5675 5673 5675 5676 5677 5677 5677 5675 5675 5675 5673 5672 5670 5669 5668 5666 5665 5664 5662 5661 5660 5659 5659 5658 5658 5657 5657 5656
5684 5683 5681 5680 5679 5678 5677 5675 5675 5675 5674 5671 5671 5672 5672 5674 5672 5671 5671 5670 5670 5669 5667 5665 5664 5663 5661 5660 5659 5657 5656 5656 5655 5654 5653 5652 5652 5651
5682 5680 5679 5677 5675 5674 5673 5672 5672 5670 5669 5667 5667 5667 5668 5669 5668 5665 5663 5663 5663 5664 5662 5661 5660 5658 5657 5656 5655 5654 5652 5651 5650 5649 5648 5648 5647 5647
5678 5677 5676 5674 5673 5671 5670 5669 5668 5666 5665 5663 5663 5663 5663 5662 5661 5662 5658 5658 5658 5659 5657 5656 5654 5653 5651 5650 5650 5650 5649 5647 5646 5645 5644 5643 5642 5642
5674 5673 5672 5671 5669 5667 5666 5666 5664 5662 5661 5660 5659 5658 5659 5659 5659 5657 5654 5652 5649 5654 5651 5649 5650 5648 5648 5647 5647 5647 5646 5644 5642 5641 5640 5639 5638 5637
5670 5669 5668 5668 5666 5664 5663 5662 5661 5660 5659 5657 5656 5656 5656 5657 5654 5652 5650 5648 5646 5648 5645 5643 5644 5643 5644 5644 5644 5643 5642 5640 5639 5637 5636 5634 5633 5632
5666 5665 5663 5662 5662 5660 5659 5658 5657 5657 5656 5655 5654 5654 5654 5653 5651 5649 5646 5645 5644 5644 5642 5637 5638 5638 5639 5639 5639 5638 5637 5635 5634 5632 5631 5629 5628 5627
5662 5662 5660 5658 5656 5654 5653 5653 5652 5653 5653 5652 5651 5650 5649 5647 5646 5642 5640 5637 5635 5636 5637 5633 5633 5632 5633 5634 5634 5633 5632 5630 5629 5627 5625 5624 5622 5621
5657 5656 5654 5652 5650 5648 5647 5647 5646 5646 5647 5647 5645 5645 5644 5643 5640 5637 5635 5632 5630 5629 5632 5629 5627 5626 5625 5628 5628 5626 5625 5623 5622 5621 5620 5618 5616 5613
5651 5650 5649 5646 5645 5643 5642 5641 5640 5640 5640 5640 5639 5639 5638 5636 5635 5633 5631 5629 5626 5624 5626 5623 5621 5620 5618 5619 5621 5621 5619 5618 5616 5615 5614 5612 5611 5609
5644 5644 5643 5641 5640 5638 5636 5636 5635 5633 5634 5633 5632 5631 5630 5630 5629 5629 5627 5626 5624 5622 5621 5619 5616 5614 5612 5612 5612 5614 5614 5613 5612 5611 5610 5608 5605 5604
5638 5636 5635 5635 5634 5633 5631 5630 5629 5628 5627 5626 5625 5624 5624 5624 5624 5623 5622 5621 5620 5619 5617 5616 5613 5611 5608 5606 5606 5607 5606 5607 5607 5606 5604 5602 5600 5598
5631 5630 5629 5629 5628 5627 5627 5625 5624 5624 5622 5621 5620 5620 5619 5619 5617 5616 5614 5613 5611 5611 5611 5610 5609 5606 5603 5602 5601 5600 5600 5600 5601 5600 5598 5597 5595 5594
5623 5623 5624 5624 5623 5623 5622 5622 5620 5619 5617 5616 5614 5613 5612 5611 5610 5610 5608 5606 5604 5603 5604 5604 5603 5601 5599 5597 5595 5595 5595 5595 5595 5594 5592 5590 5590 5590
5616 5618 5618 5618 5618 5617 5616 5616 5615 5614 5612 5611 5609 5607 5606 5605 5604 5603 5602 5600 5598 5598 5597 5596 5595 5593 5592 5592 5591 5590 5589 5588 5588 5587 5586 5583 5583 5584
5611 5612 5613 5612 5612 5611 5611 5610 5609 5609 5607 5605 5603 5602 5600 5599 5597 5596 5595 5593 5592 5591 5591 5591 5589 5586 5583 5583 5586 5585 5582 5581 5580 5580 5579 5578 5577 5578
5608 5608 5608 5607 5607 5606 5605 5604 5604 5602 5601 5599 5597 5595 5594 5592 5590 5590 5589 5587 5586 5586 5586 5586 5584 5582 5579 5578 5579 5580 5579 5576 5575 5573 5573 5573 5572 5572
5604 5604 5603 5602 5602 5601 5600 5599 5597 5596 5594 5593 5591 5589 5588 5586 5584 5584 5583 5582 5580 5581 5580 5581 5581 5581 5579 5577 5574 5575 5575 5573 5572 5570 5569 5567 5566 5565
5599 5599 5599 5598 5597 5597 5595 5593 5591 5589 5588 5587 5585 5584 5582 5580 5578 5577 5577 5577 5576 5576 5576 5577 5577 5575 5573 5571 5569 5569 5570 5570 5568 5566 5564 5563 5560 5559
5595 5594 5593 5593 5592 5591 5589 5587 5585 5583 5582 5581 5579 5577 5576 5574 5573 5572 5572 5572 5571 5571 5571 5570 5570 5569 5568 5566 5565 5565 5565 5564 5563 5561 5559 5559 5558 5557